Glendale Luke AFB, AZ

9:43 AM MST on December 10, 2019 (GMT -0700)
Luke Air Force Base

Weather History for KLUF - August, 2019

Change the Weather History Date:

Friday, August 23, 2019

  Actual Average Record
Temperature  
Mean Temperature 92 °F -  
Max Temperature 102 °F 105 °F 117 °F (1969)
Min Temperature 81 °F 72 °F 54 °F (1968)
Cooling Degree Days 26    
Growing Degree Days 42 (Base 50)    
Moisture  
Dew Point 57 °F    
Average Humidity 30    
Maximum Humidity 44    
Minimum Humidity 20    
Precipitation  
Precipitation 0.00 in - - ()
Sea Level Pressure  
Sea Level Pressure 29.76 in    
Wind  
Wind Speed 7 mph (SW)    
Max Wind Speed 23 mph    
Max Gust Speed 30 mph    
Visibility 10 miles    
Events      
Averages and records for this station are not official NWS values.
T = Trace of Precipitation, MM = Missing Value Source: NWS Daily Summary

Daily Weather History Graph

Daily Weather History Graph

Search for Another Location

Airport or City:

Astronomy

Aug. 23, 2019 Rise Set
Actual Time 5:57 AM MST 7:06 PM MST
Civil Twilight 5:31 AM MST 7:32 PM MST
Nautical Twilight 5:00 AM MST 8:02 PM MST
Astronomical Twilight 4:28 AM MST 8:34 PM MST
Moon 11:59 PM MST (8/23) 1:15 PM MST (8/23)
Length of Visible Light 14h 00m
Length of Day
13h 09m
Waning Gibbous, 48% of the Moon is Illuminated
Aug 23
Waning Gibbous
Aug 30
New
Sep 5
First Quarter
Sep 13
Full
Sep 21
Last Quarter

Hourly Weather History & Observations

Time (MST) Temp. Heat Index Dew Point Humidity Pressure Visibility Wind Dir Wind Speed Gust Speed Precip Events Conditions
1:58 AM 88.3 °F - 46.9 °F 24% 29.72 in 10.0 mi NE 4.6 mph - N/A   Clear
2:58 AM 87.8 °F 85.7 °F 53.4 °F 31% 29.74 in 10.0 mi WNW 5.8 mph - N/A   Clear
3:58 AM 86.4 °F 84.9 °F 55.4 °F 35% 29.74 in 10.0 mi NNW 6.9 mph - N/A   Clear
4:58 AM 82.9 °F - 50.0 °F 32% 29.75 in 10.0 mi NNE 5.8 mph - N/A   Clear
5:58 AM 81.9 °F - 50.7 °F 34% 29.78 in 10.0 mi Calm Calm - N/A   Clear
6:58 AM 85.8 °F - 51.6 °F 31% 29.81 in 10.0 mi SSW 4.6 mph - N/A   Clear
7:58 AM 89.4 °F 89.0 °F 59.7 °F 37% 29.81 in 10.0 mi SW 5.8 mph - N/A   Clear
8:58 AM 90.5 °F 90.1 °F 59.9 °F 36% 29.83 in 10.0 mi SSW 3.5 mph - N/A   Clear
9:58 AM 93.0 °F 92.3 °F 58.8 °F 32% 29.83 in 10.0 mi ENE 4.6 mph - N/A   Clear
10:58 AM 96.1 °F 96.0 °F 59.5 °F 30% 29.81 in 10.0 mi East 5.8 mph - N/A   Clear
11:18 AM 96.8 °F 96.2 °F 59.0 °F 28% 29.81 in 10.0 mi SSE 5.8 mph - N/A   Partly Cloudy
11:58 AM 97.2 °F 96.4 °F 58.5 °F 27% 29.80 in 10.0 mi SSE 5.8 mph - N/A   Clear
12:58 PM 99.3 °F 99.1 °F 58.3 °F 26% 29.78 in 10.0 mi SSE 5.8 mph - N/A   Partly Cloudy
1:58 PM 100.6 °F 100.0 °F 57.2 °F 24% 29.75 in 10.0 mi NW 4.6 mph - N/A   Clear
2:58 PM 100.6 °F 100.0 °F 57.2 °F 24% 29.73 in 10.0 mi ESE 3.5 mph - N/A   Partly Cloudy
3:58 PM 102.6 °F 101.9 °F 56.3 °F 22% 29.70 in 10.0 mi SW 6.9 mph - N/A   Clear
4:58 PM 102.9 °F 101.4 °F 54.0 °F 20% 29.69 in 10.0 mi SW 8.1 mph - N/A   Clear
5:58 PM 102.4 °F 101.1 °F 54.9 °F 21% 29.68 in 10.0 mi SSW 8.1 mph - N/A   Clear
6:58 PM 101.3 °F 99.6 °F 54.0 °F 21% 29.68 in 10.0 mi WSW 10.4 mph - N/A   Clear
7:58 PM 99.9 °F - 52.9 °F 21% 29.70 in 10.0 mi SW 6.9 mph - N/A   Clear
8:58 PM 96.8 °F - 52.9 °F 23% 29.75 in 10.0 mi WSW 8.1 mph - N/A   Clear
9:48 PM 95.0 °F 95.2 °F 60.8 °F 32% 29.77 in 10.0 mi SW 19.6 mph 24.2 mph N/A   Partly Cloudy
9:58 PM 95.0 °F 95.6 °F 61.3 °F 33% 29.76 in 10.0 mi WSW 18.4 mph - N/A   Partly Cloudy
10:58 PM 92.5 °F 94.1 °F 63.9 °F 39% 29.78 in 10.0 mi WSW 19.6 mph - N/A   Clear
11:50 PM 91.4 °F 94.0 °F 66.2 °F 43% 29.81 in 10.0 mi WSW 23.0 mph 29.9 mph N/A   Partly Cloudy
11:58 PM 90.1 °F 92.3 °F 65.8 °F 44% 29.81 in 10.0 mi WSW 21.9 mph 29.9 mph N/A   Partly Cloudy